Find CP3

NORAD ID: 31129 Int'l Des: 2007-012 Owner: CALP Country: US operational
LEOCIRCULARRETROGRADESSO

リアルタイム位置

3D地球を読み込み中...

CP3について

説明を読み込み中...

次回通過

Passes for default location (London). Set your location on the main map for personalized predictions.

高度履歴

Loading altitude history...

軌道要素

1 31129U 07012N 26139.85742801 .00000736 00000-0 13789-3 0 9999
2 31129 98.4524 118.8356 0082557 148.2021 212.4204 14.65827837 14581
Epoch: May 19, 2026 • Age: 5 hours

現在のステータス

高度 736.6 km
速度 7.46 km/s
衛星直下点 -15.96°S, 137.54°W
打ち上げ日 Apr 17, 2007
運用期間 19 years
タイプ other

技術仕様

分類 Payload
質量 1.00 kg
乾燥質量 1.00 kg
総質量 1.00 kg
長さ 0.10 m
直径 0.10 m
スパン 0.20 m
形状 Box + Ant
製造者 CALP
バスタイプ Cubesat 1U
フェーズステータス In Orbit
所有者/国 CALP/US

Most Searched